CDT,Max TemperatureF,Mean TemperatureF,Min TemperatureF,Max Dew PointF,MeanDew PointF,Min DewpointF,Max Humidity, Mean Humidity, Min Humidity, Max Sea Level PressureIn, Mean Sea Level PressureIn, Min Sea Level PressureIn, Max VisibilityMiles, Mean VisibilityMiles, Min VisibilityMiles, Max Wind SpeedMPH, Mean Wind SpeedMPH, Max Gust SpeedMPH,PrecipitationIn, CloudCover, Events, WindDirDegrees
2013-5-1,77,61,45,56,49,40,77,62,46,30.19,30.05,29.89,10,10,10,31,13,37,0.00,1,,11
2013-5-2,45,40,34,39,37,34,100,86,71,30.30,30.25,30.18,10,7,2,32,19,37,0.25,7,Rain-Snow,11
2013-5-3,45,39,33,45,37,32,100,98,96,30.24,30.05,29.93,10,5,0,24,16,32,1.90,8,Fog-Rain-Thunderstorm,23
2013-5-4,67,56,45,57,50,45,100,82,63,30.04,29.96,29.92,10,4,0,18,9,24,0.07,5,Fog-Rain-Thunderstorm,44
2013-5-5,73,60,46,54,50,46,100,71,41,30.05,30.03,29.99,10,5,0,14,6,18,0.00,2,Fog,43
2013-5-6,74,61,47,52,47,44,86,61,35,30.08,30.03,29.99,10,10,10,12,3,16,0.00,2,,49
2013-5-7,77,64,50,52,46,40,83,56,29,30.06,30.02,29.99,10,10,7,12,1,16,0.00,1,,353
2013-5-8,77,64,51,56,49,43,84,60,36,30.03,30.00,29.97,10,10,10,15,4,20,T,3,,236
2013-5-9,64,58,51,63,58,52,100,89,78,29.96,29.87,29.82,10,5,1,18,9,24,1.11,8,Rain,63
2013-5-10,58,52,45,51,47,43,100,86,72,30.01,29.95,29.85,10,10,5,20,10,25,0.00,6,,35
2013-5-11,53,45,37,48,35,23,100,69,38,30.13,30.00,29.88,10,9,4,32,16,40,0.00,3,Snow,304
2013-5-12,54,44,34,31,27,26,70,53,35,30.20,30.15,30.12,10,10,9,22,11,29,0.00,0,Snow,317
2013-5-13,66,49,32,42,33,27,89,59,28,30.18,30.08,29.88,10,10,9,21,8,28,T,1,Snow,199
2013-5-14,90,71,51,61,52,42,83,55,27,29.86,29.74,29.58,10,10,10,25,12,31,0.00,0,,208
2013-5-15,79,67,55,57,48,40,66,46,25,29.88,29.86,29.82,10,10,2,17,8,21,0.00,0,,335
2013-5-16,81,64,47,53,46,40,89,58,26,29.94,29.90,29.86,10,10,10,15,6,23,0.01,1,,102
2013-5-17,75,67,59,59,54,49,84,69,54,30.00,29.96,29.90,10,10,10,16,8,22,0.00,4,,90
2013-5-18,80,67,54,64,58,51,86,68,49,30.03,29.98,29.88,10,9,6,17,9,30,0.00,3,,140
2013-5-19,83,72,61,68,63,54,93,71,49,29.93,29.78,29.60,10,7,2,39,15,48,0.67,3,Rain-Thunderstorm,159
2013-5-20,78,70,61,64,62,59,100,77,54,29.73,29.68,29.60,10,10,3,25,15,31,0.00,3,Rain-Thunderstorm,181
2013-5-21,72,65,58,61,59,55,100,81,61,29.68,29.64,29.59,10,9,3,21,11,26,0.00,6,,208
2013-5-22,67,62,57,59,56,52,100,82,63,29.77,29.69,29.63,10,8,1,15,6,21,0.19,7,Rain,251
2013-5-23,64,55,45,57,49,37,100,74,48,30.29,30.01,29.77,10,8,2,21,10,26,0.34,6,Rain,21
2013-5-24,64,52,39,43,38,34,93,64,34,30.46,30.37,30.29,10,10,9,14,6,16,T,0,,121
2013-5-25,54,50,45,49,45,42,93,82,71,30.37,30.32,30.28,10,9,5,16,9,21,0.47,8,Rain,128
2013-5-26,55,50,45,54,47,39,100,83,66,30.29,30.18,30.07,10,7,2,35,10,43,0.46,7,Rain,106
2013-5-27,63,58,53,61,57,53,100,97,93,30.07,29.92,29.83,5,2,0,17,10,23,0.03,8,Fog-Rain,99
2013-5-28,73,64,55,70,60,55,100,94,87,29.81,29.74,29.67,10,3,0,16,6,22,1.33,7,Fog-Rain-Thunderstorm,107
2013-5-29,81,70,58,69,63,57,93,80,67,29.89,29.83,29.76,10,10,10,25,10,30,T,3,Thunderstorm,165
2013-5-30,79,70,61,70,65,60,100,87,74,29.84,29.74,29.67,10,9,2,30,17,41,0.24,4,Rain-Thunderstorm,181
2013-5-31,74,68,61,66,62,59,100,81,61,29.77,29.73,29.67,10,10,8,29,15,37,0.00,4,,191